TimeCST,TemperatureF,Dew PointF,Humidity,Sea Level PressureIn,VisibilityMPH,Wind Direction,Wind SpeedMPH,Gust SpeedMPH,PrecipitationIn,Events,Conditions,WindDirDegrees,DateUTC
12:13 AM,17.8,16.0,93,30.17,7.0,Calm,Calm,-,N/A,,Clear,0,2013-12-01 06:13:00
12:33 AM,16.5,15.1,94,30.17,3.0,Calm,Calm,-,N/A,,Clear,0,2013-12-01 06:33:00
12:53 AM,14.0,12.2,93,30.17,3.0,WNW,3.5,-,N/A,,Scattered Clouds,290,2013-12-01 06:53:00
1:13 AM,13.6,11.7,92,30.16,7.0,Calm,Calm,-,N/A,,Mostly Cloudy,0,2013-12-01 07:13:00
1:33 AM,14.2,12.0,91,30.17,5.0,NNW,3.5,-,N/A,,Overcast,330,2013-12-01 07:33:00
1:53 AM,16.7,15.3,94,30.17,7.0,Calm,Calm,-,N/A,,Overcast,0,2013-12-01 07:53:00
2:13 AM,18.5,17.1,94,30.17,7.0,Calm,Calm,-,N/A,,Overcast,0,2013-12-01 08:13:00
2:33 AM,20.3,19.0,95,30.17,7.0,North,3.5,-,N/A,,Overcast,350,2013-12-01 08:33:00
2:53 AM,21.2,19.8,94,30.18,7.0,NW,3.5,-,N/A,,Overcast,320,2013-12-01 08:53:00
3:13 AM,21.6,20.3,95,30.18,7.0,Calm,Calm,-,N/A,,Overcast,0,2013-12-01 09:13:00
3:33 AM,21.7,20.1,93,30.17,7.0,Calm,Calm,-,N/A,,Overcast,0,2013-12-01 09:33:00
3:53 AM,21.7,20.3,94,30.17,7.0,Calm,Calm,-,N/A,,Overcast,0,2013-12-01 09:53:00
4:13 AM,21.6,20.1,94,30.17,7.0,Calm,Calm,-,N/A,,Overcast,0,2013-12-01 10:13:00
4:33 AM,21.7,20.1,93,30.17,7.0,Calm,Calm,-,N/A,,Overcast,0,2013-12-01 10:33:00
4:53 AM,21.6,20.3,95,30.16,5.0,WNW,3.5,-,N/A,,Overcast,300,2013-12-01 10:53:00
5:13 AM,21.2,20.1,96,30.16,5.0,Calm,Calm,-,N/A,,Overcast,0,2013-12-01 11:13:00
5:33 AM,21.2,20.1,96,30.17,4.0,Calm,Calm,-,N/A,,Overcast,0,2013-12-01 11:33:00
5:53 AM,21.2,20.1,96,30.17,5.0,West,4.6,-,N/A,,Overcast,280,2013-12-01 11:53:00
6:13 AM,21.2,20.1,96,30.16,5.0,Calm,Calm,-,N/A,,Overcast,0,2013-12-01 12:13:00
6:33 AM,21.2,20.1,96,30.17,5.0,West,4.6,-,N/A,,Overcast,280,2013-12-01 12:33:00
6:53 AM,21.0,20.1,96,30.17,4.0,West,4.6,-,N/A,,Overcast,260,2013-12-01 12:53:00
7:13 AM,20.7,19.9,97,30.17,4.0,West,4.6,-,N/A,,Overcast,270,2013-12-01 13:13:00
7:33 AM,20.3,19.4,96,30.16,4.0,SW,3.5,-,N/A,,Overcast,230,2013-12-01 13:33:00
7:53 AM,20.7,19.9,97,30.16,2.5,Calm,Calm,-,N/A,,Overcast,0,2013-12-01 13:53:00
8:13 AM,20.8,19.9,96,30.16,2.0,SSW,3.5,-,N/A,,Overcast,200,2013-12-01 14:13:00
8:33 AM,20.8,19.9,96,30.16,2.0,Calm,Calm,-,N/A,,Overcast,0,2013-12-01 14:33:00
8:53 AM,21.0,20.1,96,30.15,1.8,Calm,Calm,-,N/A,,Overcast,0,2013-12-01 14:53:00
9:13 AM,21.0,19.9,96,30.16,1.2,Calm,Calm,-,N/A,,Overcast,0,2013-12-01 15:13:00
9:33 AM,21.2,20.3,96,30.15,1.8,Calm,Calm,-,N/A,,Overcast,0,2013-12-01 15:33:00
9:53 AM,21.2,20.3,96,30.16,2.0,Calm,Calm,-,N/A,,Overcast,0,2013-12-01 15:53:00
10:13 AM,21.6,20.3,95,30.15,2.5,Calm,Calm,-,N/A,,Overcast,0,2013-12-01 16:13:00
10:33 AM,21.7,20.8,96,30.15,3.0,Calm,Calm,-,N/A,,Overcast,0,2013-12-01 16:33:00
10:53 AM,22.1,21.0,96,30.14,3.0,Calm,Calm,-,N/A,,Overcast,0,2013-12-01 16:53:00
11:13 AM,22.5,21.2,95,30.14,4.0,Calm,Calm,-,N/A,,Overcast,0,2013-12-01 17:13:00
11:33 AM,23.0,21.9,96,30.13,5.0,Calm,Calm,-,N/A,,Overcast,0,2013-12-01 17:33:00
11:53 AM,23.7,22.6,96,30.12,7.0,Calm,Calm,-,N/A,,Overcast,0,2013-12-01 17:53:00
12:13 PM,24.4,22.5,92,30.11,7.0,Calm,Calm,-,N/A,,Overcast,0,2013-12-01 18:13:00
12:33 PM,25.2,21.7,87,30.10,7.0,Calm,Calm,-,N/A,,Overcast,0,2013-12-01 18:33:00
12:53 PM,26.6,22.1,83,30.09,10.0,Calm,Calm,-,N/A,,Overcast,0,2013-12-01 18:53:00
1:13 PM,27.0,22.1,82,30.07,10.0,SE,3.5,-,N/A,,Overcast,130,2013-12-01 19:13:00
1:33 PM,27.0,22.1,82,30.05,10.0,Calm,Calm,-,N/A,,Overcast,0,2013-12-01 19:33:00
1:53 PM,27.3,22.5,82,30.05,10.0,Calm,Calm,-,N/A,,Overcast,0,2013-12-01 19:53:00
2:13 PM,28.0,22.6,80,30.04,10.0,Calm,Calm,-,N/A,,Overcast,0,2013-12-01 20:13:00
2:33 PM,27.9,22.5,80,30.02,7.0,East,3.5,-,N/A,,Overcast,80,2013-12-01 20:33:00
2:53 PM,27.5,22.6,82,30.02,7.0,Calm,Calm,-,N/A,,Overcast,0,2013-12-01 20:53:00
3:13 PM,28.4,22.8,80,30.01,10.0,East,4.6,-,N/A,,Overcast,80,2013-12-01 21:13:00
3:32 PM,27.9,22.6,81,30.01,10.0,East,3.5,-,N/A,,Mostly Cloudy,80,2013-12-01 21:32:00
3:53 PM,27.5,22.6,82,30.01,10.0,East,4.6,-,N/A,,Scattered Clouds,90,2013-12-01 21:53:00
4:13 PM,27.5,22.6,82,29.99,10.0,East,5.8,-,N/A,,Scattered Clouds,90,2013-12-01 22:13:00
4:32 PM,26.8,22.1,83,30.00,10.0,East,4.6,-,N/A,,Clear,80,2013-12-01 22:32:00
4:53 PM,25.5,21.7,86,29.99,7.0,East,4.6,-,N/A,,Clear,90,2013-12-01 22:53:00
5:13 PM,25.2,21.7,87,29.99,10.0,East,3.5,-,N/A,,Clear,90,2013-12-01 23:13:00
5:33 PM,24.3,21.2,88,29.99,10.0,East,4.6,-,N/A,,Clear,80,2013-12-01 23:33:00
5:53 PM,23.5,21.0,90,29.98,7.0,East,6.9,-,N/A,,Clear,80,2013-12-01 23:53:00
6:13 PM,24.3,21.4,89,29.98,7.0,East,3.5,-,N/A,,Scattered Clouds,90,2013-12-02 00:13:00
6:33 PM,25.0,22.1,89,29.97,7.0,East,4.6,-,N/A,,Mostly Cloudy,90,2013-12-02 00:33:00
6:53 PM,25.2,21.9,87,29.96,7.0,East,5.8,-,N/A,,Overcast,100,2013-12-02 00:53:00
7:13 PM,24.6,21.6,88,29.96,7.0,East,5.8,-,N/A,,Mostly Cloudy,80,2013-12-02 01:13:00
7:33 PM,24.6,21.7,89,29.94,7.0,East,6.9,-,N/A,,Scattered Clouds,90,2013-12-02 01:33:00
7:53 PM,24.4,21.7,89,29.94,7.0,East,4.6,-,N/A,,Scattered Clouds,100,2013-12-02 01:53:00
8:12 PM,24.4,21.7,89,29.93,7.0,East,4.6,-,N/A,,Mostly Cloudy,90,2013-12-02 02:12:00
8:33 PM,24.4,21.7,89,29.92,7.0,East,4.6,-,N/A,,Overcast,100,2013-12-02 02:33:00
8:53 PM,24.3,21.6,89,29.91,7.0,East,5.8,-,N/A,,Overcast,100,2013-12-02 02:53:00
9:12 PM,24.6,21.7,89,29.91,7.0,ESE,4.6,-,N/A,,Overcast,110,2013-12-02 03:12:00
9:33 PM,24.8,21.9,89,29.91,7.0,East,4.6,-,N/A,,Overcast,100,2013-12-02 03:33:00
9:53 PM,24.8,21.9,89,29.90,7.0,East,4.6,-,N/A,,Overcast,90,2013-12-02 03:53:00
10:12 PM,25.0,21.9,88,29.90,7.0,ESE,4.6,-,N/A,,Overcast,110,2013-12-02 04:12:00
10:33 PM,25.5,22.1,87,29.88,7.0,ESE,6.9,-,N/A,,Overcast,110,2013-12-02 04:33:00
10:53 PM,25.7,22.1,86,29.89,7.0,ESE,6.9,-,N/A,,Overcast,110,2013-12-02 04:53:00
11:12 PM,25.7,22.1,86,29.88,7.0,East,5.8,-,N/A,,Overcast,100,2013-12-02 05:12:00
11:33 PM,25.7,22.5,88,29.87,7.0,ESE,6.9,-,N/A,,Overcast,110,2013-12-02 05:33:00
11:53 PM,26.2,22.6,86,29.87,7.0,East,3.5,-,N/A,,Overcast,100,2013-12-02 05:53:00